Location: Unspecified
(0.0000°N, 0.0000°E)
Time: 02:36:32
(UTC+00:00)

BlueWalker 3 - Visible Passes

Search period start: 22 March 2023 00:00
Search period end: 01 April 2023 00:00
Orbit: 497 x 515 km, 53.2° (Epoch: 21 March)

Date Brightness Start Highest point End Pass type
(mag) Time Alt. Az. Time Alt. Az. Time Alt. Az.
22 Mar 2.7 18:39:35 10° S 18:43:10 33° SE 18:46:43 10° ENE visible
22 Mar 5.1 20:20:41 10° WNW 20:21:33 11° NW 20:21:45 11° NW visible
26 Mar 3.3 05:30:46 10° NNW 05:34:23 42° NE 05:38:02 10° SE visible
27 Mar 3.0 05:11:05 10° NNW 05:14:45 45° ENE 05:18:25 10° SE visible
28 Mar 2.8 04:51:24 10° NNW 04:55:05 49° NE 04:58:48 10° SE visible
29 Mar 2.6 04:34:19 37° N 04:35:26 53° ENE 04:39:11 10° SE visible
30 Mar 3.4 04:17:10 34° ESE 04:17:10 34° ESE 04:19:31 10° SE visible
31 Mar 5.0 03:59:50 10° SE 03:59:50 10° SE 03:59:52 10° SE visible
